Flag for Barbados Weather past 2 weeks in Bridgetown, Barbados

Now
81 °F

Passing clouds.


Feels Like: 86 °F
Forecast: 81 / 86 °F
Wind: 12 mph from Northeast

Location: Grantley Adams

Current Time: Sep 17, 2014 at 1:35:15 AM

Latest Report: Sep 17, 2014 at 1:00 AM


Visibility: N/A

Pressure: 29.89 "Hg

Humidity: 84%

Dew point: 75 °F

Location of BridgetownLocation

Historic Weather in Bridgetown — Graph

°F

Bridgetown temperature yesterday

Maximum temperature yesterday: 88 °F (at 10:00 AM)
Minimum temperature yesterday: 79 °F (at 3:00 AM)
Average temperature yesterday: 83 °F

Past Weeks' High & Low Weather Summary

 TemperatureHumidityPressure
High88 °F (Sep 2, 2:00 PM)94% (Sep 3, 5:00 AM)30.04 "Hg (Sep 3, 5:00 AM)
Low77 °F (Sep 9, 2:00 AM)59% (Sep 9, 12:00 PM)29.86 "Hg (Sep 3, 3:00 AM)
Average83 °F80%29.94 "Hg
* Reported Midnight between Sep 1 and Sep 2 — Midnight between Sep 16 and Sep 17, Bridgetown, Weather by CustomWeather, © 2014

Note: Actual official high and low records may vary slightly from our data, if they occured in-between our weather recording intervals... More about our weather records

Advertising

Bridgetown weather history for previous 24 hours

 ConditionsComfort  
Time TempWeatherWind HumidityBarometerVisibility
12:00 AM
Sep 17
81 °FPassing clouds.12 mph84%29.92 "HgN/A
11:00 PM
Sep 16
81 °FPassing clouds.13 mph84%29.95 "HgN/A
10:00 PM81 °FPassing clouds.13 mph84%29.95 "HgN/A
9:00 PM81 °FPassing clouds.13 mph84%29.95 "HgN/A
8:00 PM81 °FPassing clouds.12 mph84%29.92 "HgN/A
7:00 PM81 °FPassing clouds.12 mph89%29.89 "HgN/A
6:00 PM82 °FPassing clouds.10 mph79%29.89 "HgN/A
5:00 PM82 °FScattered clouds.10 mph79%29.89 "HgN/A
4:00 PM88 °FScattered clouds.13 mph66%29.89 "HgN/A
3:00 PM88 °FScattered clouds.13 mph66%29.89 "HgN/A
2:00 PM86 °FScattered clouds.14 mph70%29.92 "HgN/A
1:00 PM88 °FScattered clouds.14 mph66%29.92 "HgN/A
12:00 PM86 °FScattered clouds.17 mph75%29.95 "HgN/A
11:00 AM88 °FScattered clouds.15 mph66%29.98 "HgN/A
10:00 AM88 °FScattered clouds.16 mph70%29.98 "HgN/A
9:00 AM86 °FScattered clouds.15 mph75%29.98 "HgN/A
8:00 AM84 °FPartly sunny.14 mph74%29.95 "HgN/A
7:00 AM82 °FPartly sunny.12 mph79%29.95 "HgN/A
6:00 AM79 °FPartly sunny.9 mph84%29.92 "HgN/A
5:00 AM79 °FPassing clouds.9 mph89%29.92 "HgN/A
4:00 AM79 °FPassing clouds.9 mph84%29.92 "HgN/A
3:00 AM79 °FPassing clouds.8 mph84%29.92 "HgN/A
2:00 AM81 °FPartly cloudy.10 mph84%29.95 "HgN/A
1:00 AM81 °FPartly cloudy.9 mph84%29.95 "HgN/A
Weather by CustomWeather, © 2014

See weather overviewHow to use our weather pages